| time (UTC) | temp F | wind direction | speed knots | gust knots | rain 1hr in | rain 24hr in | rain mn in | humidity % | barometer mb |
| 20260507170117 | 65 | 325 | 0.9 | 3.5 | 0.00 | 0.00 | 0.00 | 45 | 1016.4 |
| 20260507164600 | 65 | 302 | 0.9 | 3.5 | 0.00 | 0.00 | 0.00 | 47 | 1016.5 |
| 20260507163054 | 64 | 276 | 0.9 | 7.0 | 0.00 | 0.00 | 0.00 | 48 | 1016.7 |
| 20260507161603 | 63 | 295 | 0.9 | 4.3 | 0.00 | 0.00 | 0.00 | 49 | 1016.9 |
| 20260507160046 | 61 | 259 | 1.7 | 5.2 | 0.00 | 0.00 | 0.00 | 52 | 1017.0 |
| 20260507154543 | 60 | 284 | 0.0 | 3.5 | 0.00 | 0.00 | 0.00 | 55 | 1017.2 |
| 20260507153042 | 60 | 264 | 0.9 | 4.3 | 0.00 | 0.00 | 0.00 | 56 | 1017.4 |
| 20260507151537 | 59 | 23 | 0.9 | 3.5 | 0.00 | 0.00 | 0.00 | 59 | 1017.5 |
| 20260507150033 | 57 | 291 | 0.0 | 2.6 | 0.00 | 0.00 | 0.00 | 62 | 1017.7 |
| 20260507144532 | 56 | 250 | 0.9 | 3.5 | 0.00 | 0.00 | 0.00 | 66 | 1017.9 |
| 20260507143025 | 55 | 287 | 0.9 | 3.5 | 0.00 | 0.00 | 0.00 | 68 | 1018.1 |
| 20260507141523 | 54 | 268 | 0.9 | 2.6 | 0.00 | 0.00 | 0.00 | 73 | 1018.1 |
| 20260507140018 | 52 | 273 | 0.0 | 1.7 | 0.00 | 0.00 | 0.00 | 75 | 1018.4 |
| 20260507134518 | 51 | 299 | 0.0 | 4.3 | 0.00 | 0.00 | 0.00 | 78 | 1018.5 |
| 20260507133014 | 49 | 295 | 0.0 | 0.9 | 0.00 | 0.00 | 0.00 | 82 | 1018.5 |
| 20260507131518 | 48 | 294 | 0.0 | 0.9 | 0.00 | 0.00 | 0.00 | 83 | 1018.6 |
| 20260507130011 | 47 | 326 | 0.0 | 0.0 | 0.00 | 0.00 | 0.00 | 83 | 1018.5 |
| 20260507124516 | 47 | 324 | 0.0 | 0.0 | 0.00 | 0.00 | 0.00 | 83 | 1018.4 |
| 20260507123010 | 46 | 325 | 0.0 | 0.0 | 0.00 | 0.00 | 0.00 | 83 | 1018.3 |
| 20260507121511 | 46 | 326 | 0.0 | 0.0 | 0.00 | 0.00 | 0.00 | 83 | 1018.4 |
| 20260507120025 | 45 | 325 | 0.0 | 0.0 | 0.00 | 0.00 | 0.00 | 83 | 1018.3 |
| 20260507114509 | 45 | 325 | 0.0 | 0.0 | 0.00 | 0.00 | 0.00 | 84 | 1017.9 |
| 20260507113031 | 45 | 325 | 0.0 | 0.0 | 0.00 | 0.00 | 0.00 | 84 | 1017.9 |
| 20260507111507 | 45 | 325 | 0.0 | 0.0 | 0.00 | 0.00 | 0.00 | 84 | 1017.9 |
| 20260507110107 | 46 | 326 | 0.0 | 0.0 | 0.00 | 0.00 | 0.00 | 83 | 1017.9 |
| 20260507104503 | 46 | 325 | 0.0 | 0.0 | 0.00 | 0.00 | 0.00 | 83 | 1017.9 |
| 20260507103001 | 46 | 325 | 0.0 | 0.0 | 0.00 | 0.00 | 0.00 | 83 | 1018.0 |
| 20260507101604 | 47 | 326 | 0.0 | 0.0 | 0.00 | 0.00 | 0.00 | 83 | 1018.3 |
| 20260507101501 | 47 | 325 | 0.0 | 0.0 | 0.00 | 0.00 | 0.00 | 83 | 1018.3 |
| 20260507100105 | 46 | 326 | 0.0 | 0.0 | 0.00 | 0.00 | 0.00 | 83 | 1018.3 |
| 20260507094600 | 46 | 325 | 0.0 | 0.0 | 0.00 | 0.00 | 0.00 | 82 | 1018.4 |
| 20260507093057 | 46 | 326 | 0.0 | 0.0 | 0.00 | 0.00 | 0.00 | 81 | 1018.3 |
| 20260507091556 | 47 | 324 | 0.0 | 0.0 | 0.00 | 0.00 | 0.00 | 80 | 1018.3 |
| 20260507090055 | 48 | 324 | 0.0 | 0.0 | 0.00 | 0.00 | 0.00 | 78 | 1018.3 |
| 20260507084549 | 49 | 324 | 0.0 | 0.0 | 0.00 | 0.00 | 0.00 | 77 | 1018.3 |
| 20260507083045 | 50 | 324 | 0.0 | 0.0 | 0.00 | 0.00 | 0.00 | 76 | 1018.4 |
| 20260507081548 | 50 | 324 | 0.0 | 0.0 | 0.00 | 0.00 | 0.00 | 75 | 1018.5 |
| 20260507080043 | 50 | 324 | 0.0 | 0.0 | 0.00 | 0.00 | 0.00 | 76 | 1018.6 |
| 20260507074543 | 49 | 324 | 0.0 | 0.0 | 0.00 | 0.00 | 0.00 | 77 | 1018.7 |
| 20260507073047 | 49 | 324 | 0.0 | 0.0 | 0.00 | 0.00 | 0.00 | 77 | 1018.9 |
| 20260507071539 | 50 | 325 | 0.0 | 0.0 | 0.00 | 0.00 | 0.00 | 75 | 1019.0 |
| 20260507070041 | 50 | 324 | 0.0 | 0.0 | 0.00 | 0.00 | 0.00 | 75 | 1019.0 |
| 20260507064543 | 51 | 325 | 0.0 | 0.0 | 0.00 | 0.01 | 0.00 | 74 | 1019.1 |
| 20260507063045 | 50 | 324 | 0.0 | 0.0 | 0.00 | 0.01 | 0.00 | 71 | 1019.1 |
| 20260507061537 | 50 | 324 | 0.0 | 0.0 | 0.00 | 0.01 | 0.00 | 72 | 1019.1 |
| 20260507060032 | 50 | 324 | 0.0 | 0.0 | 0.00 | 0.01 | 0.00 | 73 | 1019.2 |
| 20260507054532 | 50 | 324 | 0.0 | 0.0 | 0.00 | 0.01 | 0.00 | 73 | 1019.3 |
| 20260507053035 | 50 | 324 | 0.0 | 0.0 | 0.00 | 0.01 | 0.00 | 72 | 1019.3 |
| 20260507051529 | 50 | 324 | 0.0 | 0.0 | 0.00 | 0.01 | 0.00 | 71 | 1019.2 |
| 20260507050024 | 50 | 324 | 0.0 | 0.0 | 0.00 | 0.01 | 0.00 | 67 | 1019.1 |
| 20260507044524 | 51 | 325 | 0.0 | 0.0 | 0.00 | 0.01 | 0.01 | 66 | 1019.1 |
| 20260507043023 | 52 | 324 | 0.0 | 0.0 | 0.00 | 0.01 | 0.01 | 66 | 1019.0 |
| 20260507041522 | 51 | 324 | 0.0 | 0.0 | 0.00 | 0.01 | 0.01 | 67 | 1018.9 |
| 20260507040022 | 52 | 324 | 0.0 | 0.0 | 0.00 | 0.01 | 0.01 | 65 | 1019.0 |
| 20260507034532 | 53 | 324 | 0.0 | 0.0 | 0.00 | 0.01 | 0.01 | 63 | 1019.1 |
| 20260507033021 | 54 | 326 | 0.0 | 0.0 | 0.00 | 0.01 | 0.01 | 60 | 1018.9 |
| 20260507031520 | 55 | 325 | 0.0 | 0.0 | 0.00 | 0.01 | 0.01 | 61 | 1018.9 |
| 20260507030022 | 55 | 325 | 0.0 | 0.0 | 0.00 | 0.01 | 0.01 | 59 | 1018.8 |
| 20260507024519 | 55 | 325 | 0.0 | 0.0 | 0.00 | 0.03 | 0.01 | 58 | 1018.7 |
| 20260507023018 | 55 | 324 | 0.0 | 0.0 | 0.00 | 0.03 | 0.01 | 58 | 1018.6 |
| 20260507021517 | 55 | 326 | 0.0 | 0.0 | 0.00 | 0.03 | 0.01 | 58 | 1018.6 |
| 20260507020017 | 56 | 324 | 0.0 | 0.0 | 0.00 | 0.03 | 0.01 | 57 | 1018.3 |
| 20260507014520 | 56 | 325 | 0.0 | 0.0 | 0.00 | 0.03 | 0.01 | 55 | 1017.9 |
| 20260507013016 | 56 | 326 | 0.0 | 0.0 | 0.00 | 0.03 | 0.01 | 54 | 1017.8 |
| 20260507011516 | 57 | 326 | 0.0 | 0.0 | 0.00 | 0.03 | 0.01 | 53 | 1017.7 |
| 20260507010027 | 58 | 325 | 0.0 | 0.9 | 0.00 | 0.03 | 0.01 | 51 | 1017.7 |
| 20260507004514 | 58 | 326 | 0.0 | 1.7 | 0.00 | 0.03 | 0.01 | 50 | 1017.7 |
| 20260507003014 | 58 | 324 | 0.0 | 1.7 | 0.00 | 0.03 | 0.01 | 49 | 1017.6 |
| 20260507001512 | 58 | 325 | 0.9 | 1.7 | 0.00 | 0.03 | 0.01 | 48 | 1017.7 |
| 20260507000012 | 58 | 325 | 0.9 | 2.6 | 0.00 | 0.03 | 0.01 | 47 | 1017.6 |
| 20260506234522 | 59 | 344 | 0.0 | 1.7 | 0.00 | 0.03 | 0.01 | 48 | 1017.4 |
| 20260506233011 | 59 | 339 | 0.0 | 1.7 | 0.00 | 0.03 | 0.01 | 46 | 1017.3 |
| 20260506231510 | 59 | 51 | 1.7 | 2.6 | 0.00 | 0.03 | 0.01 | 45 | 1017.3 |
| 20260506230009 | 60 | 61 | 1.7 | 3.5 | 0.00 | 0.03 | 0.01 | 44 | 1017.2 |
| 20260506224522 | 60 | 313 | 0.9 | 3.5 | 0.00 | 0.03 | 0.01 | 44 | 1017.2 |
| 20260506223007 | 59 | 322 | 0.9 | 2.6 | 0.00 | 0.03 | 0.01 | 45 | 1016.9 |
| 20260506221506 | 60 | 12 | 0.9 | 4.3 | 0.00 | 0.03 | 0.01 | 44 | 1017.0 |
| 20260506220017 | 61 | 350 | 1.7 | 4.3 | 0.00 | 0.03 | 0.01 | 43 | 1016.9 |
| 20260506214506 | 61 | 349 | 0.9 | 3.5 | 0.00 | 0.03 | 0.01 | 43 | 1017.2 |
| 20260506213004 | 62 | 34 | 1.7 | 3.5 | 0.00 | 0.03 | 0.01 | 43 | 1017.3 |
| 20260506211508 | 62 | 340 | 0.9 | 2.6 | 0.00 | 0.03 | 0.01 | 41 | 1017.3 |
| 20260506210005 | 62 | 30 | 0.0 | 3.5 | 0.00 | 0.03 | 0.01 | 42 | 1017.5 |
| 20260506204501 | 61 | 339 | 0.0 | 3.5 | 0.00 | 0.03 | 0.01 | 42 | 1017.7 |
| 20260506203103 | 61 | 83 | 0.9 | 4.3 | 0.00 | 0.03 | 0.01 | 41 | 1017.9 |
| 20260506201559 | 61 | 93 | 0.9 | 4.3 | 0.00 | 0.03 | 0.01 | 43 | 1018.1 |
| 20260506194600 | 61 | 34 | 1.7 | 4.3 | 0.00 | 0.03 | 0.01 | 40 | 1018.6 |
| 20260506193100 | 60 | 76 | 1.7 | 4.3 | 0.00 | 0.03 | 0.01 | 42 | 1018.6 |
| 20260506191553 | 60 | 346 | 1.7 | 4.3 | 0.00 | 0.03 | 0.01 | 43 | 1018.6 |
| 20260506190051 | 59 | 357 | 0.9 | 5.2 | 0.00 | 0.03 | 0.01 | 45 | 1018.6 |
| 20260506184548 | 59 | 41 | 1.7 | 3.5 | 0.00 | 0.03 | 0.01 | 46 | 1018.7 |
| 20260506183046 | 58 | 340 | 1.7 | 5.2 | 0.00 | 0.03 | 0.01 | 48 | 1018.9 |
| 20260506181558 | 57 | 85 | 0.9 | 4.3 | 0.00 | 0.03 | 0.01 | 50 | 1019.2 |
| 20260506180042 | 57 | 342 | 0.9 | 3.5 | 0.00 | 0.03 | 0.01 | 52 | 1019.4 |
| 20260506174541 | 57 | 52 | 1.7 | 6.1 | 0.00 | 0.03 | 0.01 | 50 | 1019.4 |
| 20260506173049 | 57 | 299 | 1.7 | 3.5 | 0.00 | 0.03 | 0.01 | 51 | 1019.7 |
| 20260506171536 | 56 | 354 | 0.9 | 4.3 | 0.00 | 0.03 | 0.01 | 57 | 1019.6 |